Time,TemperatureF,DewpointF,PressureIn,WindDirection,WindDirectionDegrees,WindSpeedMPH,WindSpeedGustMPH,Humidity,HourlyPrecipIn,Conditions,Clouds,dailyrainin,SoftwareType,DateUTC
2013-08-24 00:00:00,77.2,75.7,29.84,WNW,286,1.0,3.0,95,0.01,,,0.00,VWS V15.00,2013-08-24 06:00:00,
2013-08-24 00:01:00,77.2,75.7,29.84,WNW,288,0.0,1.0,95,0.01,,,0.00,VWS V14.01,2013-08-24 06:01:00,
2013-08-24 00:06:00,77.2,75.7,29.84,West,262,1.0,2.0,95,0.01,,,0.00,VWS V14.01,2013-08-24 06:06:00,
2013-08-24 00:11:00,77.2,75.7,29.84,NNW,330,0.0,2.0,95,0.01,,,0.00,VWS V14.01,2013-08-24 06:11:00,
2013-08-24 00:16:00,77.2,75.7,29.83,NW,326,0.0,2.0,95,0.01,,,0.00,VWS V14.01,2013-08-24 06:16:00,
2013-08-24 00:21:00,77.1,75.6,29.83,West,277,0.0,2.0,95,0.01,,,0.00,VWS V14.01,2013-08-24 06:21:00,
2013-08-24 00:26:00,77.0,75.5,29.83,West,277,1.0,2.0,95,0.01,,,0.00,VWS V14.01,2013-08-24 06:26:00,
2013-08-24 00:30:00,77.1,75.6,29.83,WNW,295,1.0,2.0,95,0.01,,,0.00,VWS V15.00,2013-08-24 06:30:00,
2013-08-24 00:31:00,77.1,75.6,29.83,West,263,0.0,2.0,95,0.00,,,0.00,VWS V14.01,2013-08-24 06:31:00,
2013-08-24 00:36:00,77.1,75.6,29.83,West,277,1.0,2.0,95,0.00,,,0.00,VWS V14.01,2013-08-24 06:36:00,
2013-08-24 00:41:00,77.1,75.6,29.83,West,280,0.0,2.0,95,0.00,,,0.00,VWS V14.01,2013-08-24 06:41:00,
2013-08-24 00:46:00,77.1,75.6,29.82,West,270,0.0,2.0,95,0.00,,,0.00,VWS V14.01,2013-08-24 06:46:00,
2013-08-24 00:51:00,77.1,75.6,29.82,West,270,0.0,2.0,95,0.00,,,0.00,VWS V14.01,2013-08-24 06:51:00,
2013-08-24 00:56:00,77.1,75.6,29.82,West,270,0.0,2.0,95,0.00,,,0.00,VWS V14.01,2013-08-24 06:56:00,
2013-08-24 01:00:00,77.1,75.6,29.82,West,270,0.0,2.0,95,0.00,,,0.00,VWS V15.00,2013-08-24 07:00:00,
2013-08-24 01:01:00,77.1,75.6,29.82,West,270,0.0,0.0,95,0.00,,,0.00,VWS V14.01,2013-08-24 07:01:00,
2013-08-24 01:06:00,77.1,75.6,29.82,West,267,0.0,1.0,95,0.00,,,0.00,VWS V14.01,2013-08-24 07:06:00,
2013-08-24 01:11:00,77.1,75.6,29.82,West,266,1.0,1.0,95,0.00,,,0.00,VWS V14.01,2013-08-24 07:11:00,
2013-08-24 01:16:00,77.2,75.7,29.82,West,266,1.0,1.0,95,0.00,,,0.00,VWS V14.01,2013-08-24 07:16:00,
2013-08-24 01:21:00,77.2,75.7,29.82,WSW,250,1.0,2.0,95,0.00,,,0.00,VWS V14.01,2013-08-24 07:21:00,
2013-08-24 01:26:00,77.2,75.7,29.82,West,269,1.0,2.0,95,0.00,,,0.00,VWS V14.01,2013-08-24 07:26:00,
2013-08-24 01:30:00,77.3,75.8,29.82,WSW,245,0.0,2.0,95,0.00,,,0.00,VWS V15.00,2013-08-24 07:30:00,
2013-08-24 01:31:00,77.3,75.8,29.82,WSW,247,2.0,3.0,95,0.00,,,0.00,VWS V14.01,2013-08-24 07:31:00,
2013-08-24 01:36:00,77.4,75.9,29.81,WNW,282,3.0,4.0,95,0.00,,,0.00,VWS V14.01,2013-08-24 07:36:00,
2013-08-24 01:41:00,77.5,76.0,29.81,West,262,0.0,4.0,95,0.00,,,0.00,VWS V14.01,2013-08-24 07:41:00,
2013-08-24 01:46:00,77.6,76.1,29.81,WNW,291,0.0,4.0,95,0.00,,,0.00,VWS V14.01,2013-08-24 07:46:00,
2013-08-24 01:51:00,77.7,76.2,29.81,WNW,286,2.0,4.0,95,0.00,,,0.00,VWS V14.01,2013-08-24 07:51:00,
2013-08-24 01:56:00,77.7,76.2,29.81,WSW,253,3.0,4.0,95,0.00,,,0.00,VWS V14.01,2013-08-24 07:56:00,
2013-08-24 02:00:00,77.7,75.8,29.81,WSW,245,2.0,5.0,94,0.00,,,0.00,VWS V15.00,2013-08-24 08:00:00,
2013-08-24 02:01:00,77.8,76.3,29.81,WSW,255,2.0,3.0,95,0.00,,,0.00,VWS V14.01,2013-08-24 08:01:00,
2013-08-24 02:06:00,77.8,75.9,29.81,West,277,1.0,4.0,94,0.00,,,0.00,VWS V14.01,2013-08-24 08:06:00,
2013-08-24 02:11:00,77.8,75.9,29.80,West,262,1.0,4.0,94,0.00,,,0.00,VWS V14.01,2013-08-24 08:11:00,
2013-08-24 02:16:00,77.8,75.9,29.80,WNW,288,4.0,4.0,94,0.00,,,0.00,VWS V14.01,2013-08-24 08:16:00,
2013-08-24 02:21:00,77.8,75.9,29.80,West,281,2.0,5.0,94,0.00,,,0.00,VWS V14.01,2013-08-24 08:21:00,
2013-08-24 02:26:00,77.8,75.9,29.80,West,266,0.0,5.0,94,0.00,,,0.00,VWS V14.01,2013-08-24 08:26:00,
2013-08-24 02:30:00,77.8,75.9,29.80,West,271,0.0,5.0,94,0.00,,,0.00,VWS V15.00,2013-08-24 08:30:00,
2013-08-24 02:31:00,77.9,76.0,29.80,West,273,0.0,0.0,94,0.00,,,0.00,VWS V14.01,2013-08-24 08:31:00,
2013-08-24 02:36:00,77.8,75.9,29.80,WNW,283,1.0,2.0,94,0.00,,,0.00,VWS V14.01,2013-08-24 08:36:00,
2013-08-24 02:41:00,77.8,75.9,29.80,WNW,284,0.0,2.0,94,0.00,,,0.00,VWS V14.01,2013-08-24 08:41:00,
2013-08-24 02:46:00,77.7,75.8,29.80,WNW,295,1.0,3.0,94,0.00,,,0.00,VWS V14.01,2013-08-24 08:46:00,
2013-08-24 02:51:00,77.7,75.8,29.80,WNW,284,0.0,3.0,94,0.00,,,0.00,VWS V14.01,2013-08-24 08:51:00,
2013-08-24 02:56:00,77.8,75.9,29.80,WNW,293,0.0,3.0,94,0.00,,,0.00,VWS V14.01,2013-08-24 08:56:00,
2013-08-24 03:00:00,77.7,75.8,29.80,West,277,0.0,3.0,94,0.00,,,0.00,VWS V15.00,2013-08-24 09:00:00,
2013-08-24 03:01:00,77.7,75.8,29.80,West,277,1.0,1.0,94,0.00,,,0.00,VWS V14.01,2013-08-24 09:01:00,
2013-08-24 03:06:00,77.7,75.8,29.80,West,276,1.0,2.0,94,0.00,,,0.00,VWS V14.01,2013-08-24 09:06:00,
2013-08-24 03:11:00,77.7,75.8,29.80,West,280,1.0,2.0,94,0.00,,,0.00,VWS V14.01,2013-08-24 09:11:00,
2013-08-24 03:16:00,77.7,75.8,29.80,West,278,2.0,2.0,94,0.00,,,0.00,VWS V14.01,2013-08-24 09:16:00,
2013-08-24 03:21:00,77.7,75.8,29.79,West,266,0.0,2.0,94,0.00,,,0.00,VWS V14.01,2013-08-24 09:21:00,
2013-08-24 03:26:00,77.7,75.8,29.80,West,266,0.0,2.0,94,0.00,,,0.00,VWS V14.01,2013-08-24 09:26:00,
2013-08-24 03:30:00,77.6,75.7,29.80,West,277,0.0,2.0,94,0.00,,,0.00,VWS V15.00,2013-08-24 09:30:00,
2013-08-24 03:31:00,77.6,75.7,29.80,WNW,291,0.0,1.0,94,0.00,,,0.00,VWS V14.01,2013-08-24 09:31:00,
2013-08-24 03:36:00,77.5,75.6,29.79,WNW,288,0.0,1.0,94,0.00,,,0.00,VWS V14.01,2013-08-24 09:36:00,
2013-08-24 03:41:00,77.5,75.6,29.79,WNW,287,0.0,1.0,94,0.00,,,0.00,VWS V14.01,2013-08-24 09:41:00,
2013-08-24 03:46:00,77.4,75.5,29.79,WNW,286,0.0,1.0,94,0.00,,,0.00,VWS V14.01,2013-08-24 09:46:00,
2013-08-24 03:51:00,77.4,75.5,29.79,WNW,287,0.0,1.0,94,0.00,,,0.00,VWS V14.01,2013-08-24 09:51:00,
2013-08-24 03:56:00,77.3,75.4,29.79,WNW,287,0.0,1.0,94,0.00,,,0.00,VWS V14.01,2013-08-24 09:56:00,
2013-08-24 04:00:00,77.1,75.2,29.79,NW,305,0.0,1.0,94,0.00,,,0.00,VWS V15.00,2013-08-24 10:00:00,
2013-08-24 04:01:00,77.1,75.2,29.79,NW,305,0.0,0.0,94,0.00,,,0.00,VWS V14.01,2013-08-24 10:01:00,
2013-08-24 04:06:00,76.9,75.1,29.79,NW,323,0.0,1.0,94,0.00,,,0.00,VWS V14.01,2013-08-24 10:06:00,
2013-08-24 04:11:00,76.7,75.2,29.80,NW,323,0.0,1.0,95,0.00,,,0.00,VWS V14.01,2013-08-24 10:11:00,
2013-08-24 04:16:00,76.7,75.2,29.80,NW,323,0.0,1.0,95,0.00,,,0.00,VWS V14.01,2013-08-24 10:16:00,
2013-08-24 04:21:00,76.6,75.1,29.80,NNW,328,0.0,1.0,95,0.00,,,0.00,VWS V14.01,2013-08-24 10:21:00,
2013-08-24 04:26:00,76.5,75.0,29.80,NNW,328,0.0,1.0,95,0.00,,,0.00,VWS V14.01,2013-08-24 10:26:00,
2013-08-24 04:30:00,76.5,75.0,29.81,NNW,328,0.0,1.0,95,0.00,,,0.00,VWS V15.00,2013-08-24 10:30:00,
2013-08-24 04:31:00,76.5,75.0,29.80,NNW,328,0.0,0.0,95,0.00,,,0.00,VWS V14.01,2013-08-24 10:31:00,
2013-08-24 04:36:00,76.4,74.9,29.81,NNW,328,0.0,0.0,95,0.00,,,0.00,VWS V14.01,2013-08-24 10:36:00,
2013-08-24 04:41:00,76.6,75.4,29.81,NW,324,0.0,0.0,96,0.00,,,0.00,VWS V14.01,2013-08-24 10:41:00,
2013-08-24 04:46:00,76.7,75.5,29.81,West,263,1.0,1.0,96,0.00,,,0.00,VWS V14.01,2013-08-24 10:46:00,
2013-08-24 04:51:00,76.8,75.3,29.81,WSW,257,0.0,1.0,95,0.00,,,0.00,VWS V14.01,2013-08-24 10:51:00,
2013-08-24 04:56:00,77.0,75.8,29.81,West,280,0.0,1.0,96,0.00,,,0.00,VWS V14.01,2013-08-24 10:56:00,
2013-08-24 05:00:00,77.0,75.8,29.81,West,259,1.0,3.0,96,0.00,,,0.00,VWS V15.00,2013-08-24 11:00:00,
2013-08-24 05:01:00,77.1,75.9,29.81,WSW,257,1.0,2.0,96,0.00,,,0.00,VWS V14.01,2013-08-24 11:01:00,
2013-08-24 05:06:00,77.3,75.8,29.81,WSW,255,2.0,2.0,95,0.00,,,0.00,VWS V14.01,2013-08-24 11:06:00,
2013-08-24 05:11:00,77.4,75.9,29.81,WSW,248,0.0,2.0,95,0.00,,,0.00,VWS V14.01,2013-08-24 11:11:00,
2013-08-24 05:16:00,77.4,75.9,29.81,West,259,0.0,2.0,95,0.00,,,0.00,VWS V14.01,2013-08-24 11:16:00,
2013-08-24 05:21:00,77.4,75.5,29.81,NNW,327,0.0,2.0,94,0.00,,,0.00,VWS V14.01,2013-08-24 11:21:00,
2013-08-24 05:26:00,77.1,75.6,29.81,NNW,327,0.0,2.0,95,0.00,,,0.00,VWS V14.01,2013-08-24 11:26:00,
2013-08-24 05:30:00,77.0,75.5,29.81,NNW,327,0.0,2.0,95,0.00,,,0.00,VWS V15.00,2013-08-24 11:30:00,
2013-08-24 05:31:00,77.0,75.5,29.81,NNW,327,0.0,0.0,95,0.00,,,0.00,VWS V14.01,2013-08-24 11:31:00,
2013-08-24 05:36:00,76.8,75.3,29.81,NNW,327,1.0,1.0,95,0.00,,,0.00,VWS V14.01,2013-08-24 11:36:00,
2013-08-24 05:41:00,76.8,75.3,29.81,NNW,328,2.0,2.0,95,0.00,,,0.00,VWS V14.01,2013-08-24 11:41:00,
2013-08-24 05:46:00,76.8,75.3,29.82,NNW,337,0.0,2.0,95,0.00,,,0.00,VWS V14.01,2013-08-24 11:46:00,
2013-08-24 05:51:00,76.7,75.5,29.82,NNW,338,0.0,2.0,96,0.00,,,0.00,VWS V14.01,2013-08-24 11:51:00,
2013-08-24 05:56:00,76.8,75.6,29.82,NNW,338,0.0,2.0,96,0.00,,,0.00,VWS V14.01,2013-08-24 11:56:00,
2013-08-24 06:00:00,77.2,76.0,29.82,West,270,0.0,2.0,96,0.00,,,0.00,VWS V15.00,2013-08-24 12:00:00,
2013-08-24 06:01:00,77.2,76.0,29.82,West,270,0.0,1.0,96,0.00,,,0.00,VWS V14.01,2013-08-24 12:01:00,
2013-08-24 06:06:00,77.4,76.2,29.82,West,274,0.0,2.0,96,0.00,,,0.00,VWS V14.01,2013-08-24 12:06:00,
2013-08-24 06:11:00,77.5,76.3,29.82,West,274,0.0,2.0,96,0.00,,,0.00,VWS V14.01,2013-08-24 12:11:00,
2013-08-24 06:16:00,77.6,76.1,29.83,NNW,339,1.0,2.0,95,0.00,,,0.00,VWS V14.01,2013-08-24 12:16:00,
2013-08-24 06:21:00,77.6,76.1,29.83,NNW,338,0.0,2.0,95,0.00,,,0.00,VWS V14.01,2013-08-24 12:21:00,
2013-08-24 06:26:00,77.6,76.1,29.83,West,280,0.0,2.0,95,0.00,,,0.00,VWS V14.01,2013-08-24 12:26:00,
2013-08-24 06:30:00,77.7,76.2,29.84,NE,41,0.0,2.0,95,0.00,,,0.00,VWS V15.00,2013-08-24 12:30:00,
2013-08-24 06:31:00,77.7,76.2,29.84,NE,41,0.0,0.0,95,0.00,,,0.00,VWS V14.01,2013-08-24 12:31:00,
2013-08-24 06:36:00,77.7,76.2,29.84,WNW,292,0.0,1.0,95,0.00,,,0.00,VWS V14.01,2013-08-24 12:36:00,
2013-08-24 06:41:00,77.7,76.2,29.84,NW,311,0.0,1.0,95,0.00,,,0.00,VWS V14.01,2013-08-24 12:41:00,
2013-08-24 06:46:00,77.8,76.3,29.84,NW,326,2.0,2.0,95,0.00,,,0.00,VWS V14.01,2013-08-24 12:46:00,
2013-08-24 06:51:00,77.8,76.3,29.84,NW,317,0.0,2.0,95,0.00,,,0.00,VWS V14.01,2013-08-24 12:51:00,
2013-08-24 06:56:00,78.0,76.5,29.85,NW,312,0.0,2.0,95,0.00,,,0.00,VWS V14.01,2013-08-24 12:56:00,
2013-08-24 07:00:00,78.1,76.6,29.85,NW,307,0.0,2.0,95,0.00,,,0.00,VWS V15.00,2013-08-24 13:00:00,
2013-08-24 07:01:00,78.1,76.6,29.85,NW,307,0.0,0.0,95,0.00,,,0.00,VWS V14.01,2013-08-24 13:01:00,
2013-08-24 07:06:00,78.2,76.7,29.85,NW,306,0.0,0.0,95,0.00,,,0.00,VWS V14.01,2013-08-24 13:06:00,
2013-08-24 07:11:00,78.3,76.8,29.85,NW,306,0.0,0.0,95,0.00,,,0.00,VWS V14.01,2013-08-24 13:11:00,
2013-08-24 07:16:00,78.3,76.8,29.86,West,277,0.0,2.0,95,0.00,,,0.00,VWS V14.01,2013-08-24 13:16:00,
2013-08-24 07:21:00,78.5,76.9,29.86,West,265,1.0,2.0,95,0.00,,,0.00,VWS V14.01,2013-08-24 13:21:00,
2013-08-24 07:25:00,78.8,76.9,29.86,West,280,0.0,2.0,94,0.00,,,0.00,VWS V14.01,2013-08-24 13:25:00,
2013-08-24 07:30:00,79.2,77.3,29.86,NW,306,0.0,0.0,94,0.00,,,0.00,VWS V14.01,2013-08-24 13:30:00,
2013-08-24 07:35:00,79.5,77.6,29.86,NW,308,0.0,1.0,94,0.00,,,0.00,VWS V14.01,2013-08-24 13:35:00,
2013-08-24 07:40:00,79.9,77.7,29.86,NW,307,0.0,1.0,93,0.00,,,0.00,VWS V14.01,2013-08-24 13:40:00,
2013-08-24 07:46:00,80.3,78.1,29.87,NW,307,0.0,1.0,93,0.00,,,0.00,VWS V14.01,2013-08-24 13:46:00,
2013-08-24 07:51:00,80.8,78.3,29.88,South,174,0.0,1.0,92,0.00,,,0.00,VWS V14.01,2013-08-24 13:51:00,
2013-08-24 07:56:00,80.7,77.8,29.88,WSW,243,0.0,1.0,91,0.00,,,0.00,VWS V14.01,2013-08-24 13:56:00,
2013-08-24 08:00:00,80.8,77.6,29.88,WSW,245,2.0,3.0,90,0.00,,,0.00,VWS V15.00,2013-08-24 14:00:00,
2013-08-24 08:01:00,80.8,77.6,29.88,WSW,249,2.0,2.0,90,0.00,,,0.00,VWS V14.01,2013-08-24 14:01:00,
2013-08-24 08:06:00,80.9,77.7,29.88,West,267,1.0,3.0,90,0.00,,,0.00,VWS V14.01,2013-08-24 14:06:00,
2013-08-24 08:11:00,81.1,77.9,29.89,WSW,250,3.0,3.0,90,0.00,,,0.00,VWS V14.01,2013-08-24 14:11:00,
2013-08-24 08:16:00,81.2,78.0,29.89,WNW,287,1.0,4.0,90,0.00,,,0.00,VWS V14.01,2013-08-24 14:16:00,
2013-08-24 08:21:00,81.4,78.5,29.89,West,262,1.0,4.0,91,0.00,,,0.00,VWS V14.01,2013-08-24 14:21:00,
2013-08-24 08:26:00,81.5,77.9,29.89,SW,236,3.0,4.0,89,0.00,,,0.00,VWS V14.01,2013-08-24 14:26:00,
2013-08-24 08:30:00,81.7,78.1,29.89,WSW,252,3.0,4.0,89,0.00,,,0.00,VWS V15.00,2013-08-24 14:30:00,
2013-08-24 08:31:00,81.7,78.2,29.89,West,270,2.0,3.0,89,0.00,,,0.00,VWS V14.01,2013-08-24 14:31:00,
2013-08-24 08:36:00,82.0,78.1,29.90,SW,233,1.0,4.0,88,0.00,,,0.00,VWS V14.01,2013-08-24 14:36:00,
2013-08-24 08:41:00,82.3,77.7,29.89,WSW,240,2.0,4.0,86,0.00,,,0.00,VWS V14.01,2013-08-24 14:41:00,
2013-08-24 08:45:00,82.9,77.9,29.89,SSW,212,0.0,4.0,85,0.00,,,0.00,VWS V14.01,2013-08-24 14:45:00,
2013-08-24 08:51:00,83.4,78.1,29.89,SSW,208,0.0,4.0,84,0.00,,,0.00,VWS V14.01,2013-08-24 14:51:00,
2013-08-24 08:56:00,83.7,78.0,29.89,SW,218,0.0,4.0,83,0.00,,,0.00,VWS V14.01,2013-08-24 14:56:00,
2013-08-24 09:00:00,83.9,78.2,29.89,SW,214,0.0,4.0,83,0.00,,,0.00,VWS V15.00,2013-08-24 15:00:00,
2013-08-24 09:01:00,83.9,78.2,29.89,SSW,213,0.0,0.0,83,0.00,,,0.00,VWS V14.01,2013-08-24 15:01:00,
2013-08-24 09:05:00,84.3,78.2,29.89,SW,217,1.0,2.0,82,0.00,,,0.00,VWS V14.01,2013-08-24 15:05:00,
2013-08-24 09:11:00,84.9,78.8,29.89,South,186,1.0,3.0,82,0.00,,,0.00,VWS V14.01,2013-08-24 15:11:00,
2013-08-24 09:16:00,86.6,79.3,29.89,SE,131,2.0,3.0,79,0.00,,,0.00,VWS V14.01,2013-08-24 15:16:00,
2013-08-24 09:21:00,87.2,79.1,29.89,SSW,201,2.0,3.0,77,0.00,,,0.00,VWS V14.01,2013-08-24 15:21:00,
2013-08-24 09:26:00,87.5,79.4,29.89,SE,145,4.0,4.0,77,0.00,,,0.00,VWS V14.01,2013-08-24 15:26:00,
2013-08-24 09:30:00,87.7,79.2,29.89,South,188,3.0,5.0,76,0.00,,,0.00,VWS V15.00,2013-08-24 15:30:00,
2013-08-24 09:31:00,87.7,78.8,29.89,SE,139,3.0,3.0,75,0.00,,,0.00,VWS V14.01,2013-08-24 15:31:00,
2013-08-24 09:36:00,87.3,79.2,29.89,East,89,2.0,4.0,77,0.00,,,0.00,VWS V14.01,2013-08-24 15:36:00,
2013-08-24 09:41:00,87.1,78.6,29.89,SE,145,1.0,4.0,76,0.00,,,0.00,VWS V14.01,2013-08-24 15:41:00,
2013-08-24 09:46:00,87.3,79.6,29.89,SE,124,1.0,5.0,78,0.00,,,0.00,VWS V14.01,2013-08-24 15:46:00,
2013-08-24 09:51:00,87.6,79.1,29.89,ESE,104,1.0,5.0,76,0.00,,,0.00,VWS V14.01,2013-08-24 15:51:00,
2013-08-24 09:56:00,87.8,79.3,29.89,SSW,193,1.0,5.0,76,0.00,,,0.00,VWS V14.01,2013-08-24 15:56:00,
2013-08-24 10:00:00,87.9,79.0,29.89,SE,129,1.0,5.0,75,0.00,,,0.00,VWS V15.00,2013-08-24 16:00:00,
2013-08-24 10:01:00,88.0,79.1,29.89,SSE,156,1.0,1.0,75,0.00,,,0.00,VWS V14.01,2013-08-24 16:01:00,
2013-08-24 10:06:00,88.6,79.7,29.89,SSE,156,2.0,3.0,75,0.00,,,0.00,VWS V14.01,2013-08-24 16:06:00,
2013-08-24 10:11:00,88.4,79.1,29.88,SE,132,1.0,3.0,74,0.00,,,0.00,VWS V14.01,2013-08-24 16:11:00,
2013-08-24 10:16:00,88.5,79.6,29.88,ESE,108,1.0,4.0,75,0.00,,,0.00,VWS V14.01,2013-08-24 16:16:00,
2013-08-24 10:20:00,88.0,78.7,29.88,SE,141,0.0,4.0,74,0.00,,,0.00,VWS V14.01,2013-08-24 16:20:00,
2013-08-24 10:25:00,88.0,78.7,29.88,SSE,152,0.0,4.0,74,0.00,,,0.00,VWS V14.01,2013-08-24 16:25:00,
2013-08-24 10:30:00,88.5,78.7,29.88,South,177,0.0,0.0,73,0.00,,,0.00,VWS V14.01,2013-08-24 16:30:00,
2013-08-24 10:35:00,88.1,78.4,29.88,SE,133,2.0,2.0,73,0.00,,,0.00,VWS V14.01,2013-08-24 16:35:00,
2013-08-24 10:40:00,87.9,78.6,29.88,SSE,159,1.0,2.0,74,0.00,,,0.00,VWS V14.01,2013-08-24 16:40:00,
2013-08-24 10:45:00,88.4,79.1,29.88,SSE,148,0.0,3.0,74,0.00,,,0.00,VWS V14.01,2013-08-24 16:45:00,
2013-08-24 10:50:00,89.2,79.4,29.88,East,93,0.0,3.0,73,0.00,,,0.00,VWS V14.01,2013-08-24 16:50:00,
2013-08-24 10:55:00,88.8,77.3,29.88,SSW,207,2.0,3.0,69,0.00,,,0.00,VWS V14.01,2013-08-24 16:55:00,
2013-08-24 11:00:00,88.3,78.6,29.88,South,176,1.0,1.0,73,0.00,,,0.00,VWS V14.01,2013-08-24 17:00:00,
2013-08-24 11:05:00,88.5,77.5,29.88,SSW,196,2.0,3.0,70,0.00,,,0.00,VWS V14.01,2013-08-24 17:05:00,
2013-08-24 11:10:00,87.8,78.1,29.88,South,186,3.0,4.0,73,0.00,,,0.00,VWS V14.01,2013-08-24 17:10:00,
2013-08-24 11:15:00,87.6,77.5,29.88,SW,219,1.0,4.0,72,0.00,,,0.00,VWS V14.01,2013-08-24 17:15:00,
2013-08-24 11:20:00,87.2,77.5,29.88,SSW,197,3.0,4.0,73,0.00,,,0.00,VWS V14.01,2013-08-24 17:20:00,
2013-08-24 11:25:00,87.4,78.1,29.88,SSW,198,2.0,4.0,74,0.00,,,0.00,VWS V14.01,2013-08-24 17:25:00,
2013-08-24 11:30:00,87.7,78.0,29.87,SSW,201,2.0,2.0,73,0.00,,,0.00,VWS V14.01,2013-08-24 17:30:00,
2013-08-24 11:35:00,88.3,78.1,29.87,SSE,162,2.0,3.0,72,0.00,,,0.00,VWS V14.01,2013-08-24 17:35:00,
2013-08-24 11:40:00,88.2,78.0,29.88,SSW,205,2.0,4.0,72,0.00,,,0.00,VWS V14.01,2013-08-24 17:40:00,
2013-08-24 11:45:00,88.1,77.9,29.87,SSW,204,2.0,4.0,72,0.00,,,0.00,VWS V14.01,2013-08-24 17:45:00,
2013-08-24 11:50:00,88.7,78.5,29.87,SE,128,1.0,4.0,72,0.00,,,0.00,VWS V14.01,2013-08-24 17:50:00,
2013-08-24 11:55:00,89.2,78.6,29.87,East,101,2.0,4.0,71,0.00,,,0.00,VWS V14.01,2013-08-24 17:55:00,
2013-08-24 12:00:00,89.3,78.7,29.87,NE,45,0.0,1.0,71,0.00,,,0.00,VWS V14.01,2013-08-24 18:00:00,
2013-08-24 12:05:00,89.0,78.8,29.86,East,84,4.0,5.0,72,0.00,,,0.00,VWS V14.01,2013-08-24 18:05:00,
2013-08-24 12:10:00,87.2,77.9,29.86,ESE,107,0.0,11.0,74,0.00,,,0.00,VWS V14.01,2013-08-24 18:10:00,
2013-08-24 12:15:00,88.5,78.7,29.86,SE,131,3.0,11.0,73,0.00,,,0.00,VWS V14.01,2013-08-24 18:15:00,
2013-08-24 12:20:00,89.2,79.0,29.86,ESE,117,0.0,11.0,72,0.00,,,0.00,VWS V14.01,2013-08-24 18:20:00,
2013-08-24 12:25:00,90.3,78.8,29.86,East,85,0.0,11.0,69,0.00,,,0.00,VWS V14.01,2013-08-24 18:25:00,
2013-08-24 12:30:00,90.8,78.3,29.86,SW,219,0.0,0.0,67,0.00,,,0.00,VWS V14.01,2013-08-24 18:30:00,
2013-08-24 12:35:00,90.6,78.1,29.86,SSW,203,0.0,1.0,67,0.00,,,0.00,VWS V14.01,2013-08-24 18:35:00,
2013-08-24 12:40:00,91.0,78.5,29.86,East,89,0.0,2.0,67,0.00,,,0.00,VWS V14.01,2013-08-24 18:40:00,
2013-08-24 12:45:00,89.4,77.9,29.85,ENE,71,5.0,9.0,69,0.00,,,0.00,VWS V14.01,2013-08-24 18:45:00,
2013-08-24 12:50:00,87.9,77.8,29.85,ENE,58,4.0,9.0,72,0.00,,,0.00,VWS V14.01,2013-08-24 18:50:00,
2013-08-24 12:55:00,87.1,77.8,29.85,ESE,106,0.0,9.0,74,0.00,,,0.00,VWS V14.01,2013-08-24 18:55:00,
2013-08-24 13:00:00,87.5,77.8,29.85,ENE,70,5.0,5.0,73,0.00,,,0.00,VWS V14.01,2013-08-24 19:00:00,
2013-08-24 13:05:00,87.0,77.7,29.85,ENE,77,2.0,7.0,74,0.00,,,0.00,VWS V14.01,2013-08-24 19:05:00,
2013-08-24 13:10:00,87.3,78.8,29.84,NE,40,3.0,7.0,76,0.00,,,0.00,VWS V14.01,2013-08-24 19:10:00,
2013-08-24 13:15:00,87.0,77.7,29.84,ESE,103,5.0,7.0,74,0.00,,,0.00,VWS V14.01,2013-08-24 19:15:00,
2013-08-24 13:20:00,86.7,77.8,29.84,NE,55,6.0,8.0,75,0.00,,,0.00,VWS V14.01,2013-08-24 19:20:00,
2013-08-24 13:25:00,87.5,78.2,29.84,East,96,5.0,8.0,74,0.00,,,0.00,VWS V14.01,2013-08-24 19:25:00,
2013-08-24 13:30:00,87.0,78.1,29.83,NE,34,1.0,3.0,75,0.00,,,0.00,VWS V14.01,2013-08-24 19:30:00,
2013-08-24 13:35:00,87.3,78.0,29.83,NE,47,5.0,6.0,74,0.00,,,0.00,VWS V14.01,2013-08-24 19:35:00,
2013-08-24 13:40:00,86.8,77.9,29.83,ENE,71,3.0,9.0,75,0.00,,,0.00,VWS V14.01,2013-08-24 19:40:00,
2013-08-24 13:45:00,87.0,78.1,29.83,ENE,75,6.0,9.0,75,0.00,,,0.00,VWS V14.01,2013-08-24 19:45:00,
2013-08-24 13:50:00,86.9,78.0,29.83,NE,36,7.0,9.0,75,0.00,,,0.00,VWS V14.01,2013-08-24 19:50:00,
2013-08-24 13:55:00,86.6,77.7,29.83,NE,52,8.0,9.0,75,0.00,,,0.00,VWS V14.01,2013-08-24 19:55:00,
2013-08-24 14:00:00,86.8,77.1,29.83,NE,56,4.0,7.0,73,0.00,,,0.00,VWS V14.01,2013-08-24 20:00:00,
2013-08-24 14:05:00,87.1,77.0,29.83,NE,48,6.0,10.0,72,0.00,,,0.00,VWS V14.01,2013-08-24 20:05:00,
2013-08-24 14:10:00,87.2,78.3,29.82,ENE,64,7.0,12.0,75,0.00,,,0.00,VWS V14.01,2013-08-24 20:10:00,
2013-08-24 14:15:00,87.5,77.8,29.83,ENE,63,9.0,12.0,73,0.00,,,0.00,VWS V14.01,2013-08-24 20:15:00,
2013-08-24 14:20:00,87.8,78.5,29.82,NE,41,8.0,13.0,74,0.00,,,0.00,VWS V14.01,2013-08-24 20:20:00,
2013-08-24 14:25:00,88.0,79.1,29.82,NE,39,6.0,13.0,75,0.00,,,0.00,VWS V14.01,2013-08-24 20:25:00,
2013-08-24 14:30:00,87.9,78.6,29.82,East,98,5.0,8.0,74,0.00,,,0.00,VWS V14.01,2013-08-24 20:30:00,
2013-08-24 14:35:00,88.2,78.9,29.81,ENE,72,10.0,12.0,74,0.00,,,0.00,VWS V14.01,2013-08-24 20:35:00,
2013-08-24 14:40:00,88.0,78.7,29.81,ENE,77,7.0,16.0,74,0.00,,,0.00,VWS V14.01,2013-08-24 20:40:00,
2013-08-24 14:45:00,87.8,78.5,29.81,ENE,70,6.0,18.0,74,0.00,,,0.00,VWS V14.01,2013-08-24 20:45:00,
2013-08-24 14:50:00,87.7,78.4,29.81,ENE,70,6.0,18.0,74,0.00,,,0.00,VWS V14.01,2013-08-24 20:50:00,
2013-08-24 14:55:00,87.7,79.2,29.81,ENE,66,12.0,18.0,76,0.00,,,0.00,VWS V14.01,2013-08-24 20:55:00,
2013-08-24 15:00:00,87.8,79.3,29.81,ENE,63,5.0,7.0,76,0.00,,,0.00,VWS V14.01,2013-08-24 21:00:00,
2013-08-24 15:05:00,87.8,79.3,29.81,ENE,65,17.0,17.0,76,0.00,,,0.00,VWS V14.01,2013-08-24 21:05:00,
2013-08-24 15:11:00,87.6,79.5,29.81,NE,51,9.0,17.0,77,0.00,,,0.00,VWS V14.01,2013-08-24 21:11:00,
2013-08-24 15:16:00,87.4,79.3,29.81,ENE,63,9.0,17.0,77,0.00,,,0.00,VWS V14.01,2013-08-24 21:16:00,
2013-08-24 15:21:00,87.5,79.8,29.81,East,82,6.0,17.0,78,0.00,,,0.00,VWS V14.01,2013-08-24 21:21:00,
2013-08-24 15:26:00,87.3,79.2,29.81,ENE,73,10.0,17.0,77,0.00,,,0.00,VWS V14.01,2013-08-24 21:26:00,
2013-08-24 15:30:00,87.1,79.0,29.81,ENE,63,5.0,17.0,77,0.00,,,0.00,VWS V15.00,2013-08-24 21:30:00,
2013-08-24 15:31:00,87.0,79.3,29.81,ENE,71,13.0,13.0,78,0.00,,,0.00,VWS V14.01,2013-08-24 21:31:00,
2013-08-24 15:36:00,86.6,78.9,29.81,ENE,73,9.0,15.0,78,0.00,,,0.00,VWS V14.01,2013-08-24 21:36:00,
2013-08-24 15:41:00,86.5,78.8,29.81,NE,43,7.0,15.0,78,0.00,,,0.00,VWS V14.01,2013-08-24 21:41:00,
2013-08-24 15:46:00,86.5,78.8,29.81,ENE,70,6.0,18.0,78,0.00,,,0.00,VWS V14.01,2013-08-24 21:46:00,
2013-08-24 15:51:00,86.9,79.2,29.80,NE,39,7.0,18.0,78,0.00,,,0.00,VWS V14.01,2013-08-24 21:51:00,
2013-08-24 15:56:00,87.3,79.6,29.80,East,95,5.0,18.0,78,0.00,,,0.00,VWS V14.01,2013-08-24 21:56:00,
2013-08-24 16:00:00,87.8,79.7,29.80,NE,56,8.0,18.0,77,0.00,,,0.00,VWS V15.00,2013-08-24 22:00:00,
2013-08-24 16:01:00,87.8,79.7,29.80,ENE,63,9.0,11.0,77,0.00,,,0.00,VWS V14.01,2013-08-24 22:01:00,
2013-08-24 16:06:00,87.6,79.5,29.80,NNW,345,7.0,18.0,77,0.00,,,0.00,VWS V14.01,2013-08-24 22:06:00,
2013-08-24 16:11:00,87.4,79.7,29.80,ENE,68,11.0,18.0,78,0.00,,,0.00,VWS V14.01,2013-08-24 22:11:00,
2013-08-24 16:16:00,86.8,79.5,29.80,ENE,59,7.0,18.0,79,0.00,,,0.00,VWS V14.01,2013-08-24 22:16:00,
2013-08-24 16:21:00,86.2,79.3,29.80,East,89,12.0,18.0,80,0.00,,,0.00,VWS V14.01,2013-08-24 22:21:00,
2013-08-24 16:26:00,86.0,79.5,29.80,East,101,13.0,18.0,81,0.00,,,0.00,VWS V14.01,2013-08-24 22:26:00,
2013-08-24 16:30:00,85.8,79.3,29.81,ENE,63,10.0,18.0,81,0.00,,,0.00,VWS V15.00,2013-08-24 22:30:00,
2013-08-24 16:31:00,85.8,79.7,29.81,ENE,61,10.0,16.0,82,0.00,,,0.00,VWS V14.01,2013-08-24 22:31:00,
2013-08-24 16:36:00,85.7,79.6,29.81,NE,45,11.0,16.0,82,0.00,,,0.00,VWS V14.01,2013-08-24 22:36:00,
2013-08-24 16:41:00,85.6,79.5,29.81,NNE,31,7.0,16.0,82,0.00,,,0.00,VWS V14.01,2013-08-24 22:41:00,
2013-08-24 16:46:00,85.5,79.8,29.81,East,83,6.0,16.0,83,0.00,,,0.00,VWS V14.01,2013-08-24 22:46:00,
2013-08-24 16:51:00,85.2,79.5,29.82,East,82,14.0,17.0,83,0.00,,,0.00,VWS V14.01,2013-08-24 22:51:00,
2013-08-24 16:56:00,84.9,79.5,29.82,ENE,61,9.0,17.0,84,0.00,,,0.00,VWS V14.01,2013-08-24 22:56:00,
2013-08-24 17:00:00,84.7,79.7,29.82,NE,49,5.0,17.0,85,0.00,,,0.00,VWS V15.00,2013-08-24 23:00:00,
2013-08-24 17:01:00,84.7,80.1,29.82,ENE,64,6.0,10.0,86,0.00,,,0.00,VWS V14.01,2013-08-24 23:01:00,
2013-08-24 17:06:00,84.7,79.7,29.82,ENE,73,13.0,19.0,85,0.00,,,0.00,VWS V14.01,2013-08-24 23:06:00,
2013-08-24 17:11:00,84.7,79.7,29.82,ENE,65,8.0,19.0,85,0.00,,,0.00,VWS V14.01,2013-08-24 23:11:00,
2013-08-24 17:16:00,84.8,79.8,29.82,NNE,26,14.0,19.0,85,0.00,,,0.00,VWS V14.01,2013-08-24 23:16:00,
2013-08-24 17:21:00,84.8,79.8,29.82,ENE,73,10.0,19.0,85,0.00,,,0.00,VWS V14.01,2013-08-24 23:21:00,
2013-08-24 17:26:00,84.9,79.9,29.83,ENE,63,11.0,19.0,85,0.00,,,0.00,VWS V14.01,2013-08-24 23:26:00,
2013-08-24 17:30:00,84.9,79.9,29.83,NE,34,13.0,19.0,85,0.00,,,0.00,VWS V15.00,2013-08-24 23:30:00,
2013-08-24 17:31:00,84.9,79.5,29.83,ENE,72,14.0,14.0,84,0.00,,,0.00,VWS V14.01,2013-08-24 23:31:00,
2013-08-24 17:36:00,84.9,79.5,29.83,ENE,72,10.0,17.0,84,0.00,,,0.00,VWS V14.01,2013-08-24 23:36:00,
2013-08-24 17:41:00,84.1,78.8,29.83,ESE,105,7.0,17.0,84,0.00,,,0.00,VWS V14.01,2013-08-24 23:41:00,
2013-08-24 17:46:00,83.1,78.8,29.83,East,84,12.0,17.0,87,0.00,,,0.00,VWS V14.01,2013-08-24 23:46:00,
2013-08-24 17:51:00,82.6,79.0,29.84,SE,128,4.0,17.0,89,0.00,,,0.00,VWS V14.01,2013-08-24 23:51:00,
2013-08-24 17:56:00,82.8,79.2,29.83,ESE,103,3.0,17.0,89,0.00,,,0.00,VWS V14.01,2013-08-24 23:56:00,
2013-08-24 18:00:00,82.7,79.5,29.84,ENE,70,9.0,17.0,90,0.01,,,0.01,VWS V15.00,2013-08-25 00:00:00,
2013-08-24 18:01:00,82.7,79.5,29.84,ENE,70,7.0,12.0,90,0.01,,,0.01,VWS V14.01,2013-08-25 00:01:00,
2013-08-24 18:06:00,82.7,79.8,29.84,ENE,69,5.0,14.0,91,0.01,,,0.01,VWS V14.01,2013-08-25 00:06:00,
2013-08-24 18:11:00,82.7,79.8,29.84,ENE,68,10.0,14.0,91,0.02,,,0.02,VWS V14.01,2013-08-25 00:11:00,
2013-08-24 18:16:00,82.7,79.8,29.84,ENE,65,17.0,21.0,91,0.04,,,0.04,VWS V14.01,2013-08-25 00:16:00,
2013-08-24 18:21:00,82.3,79.1,29.85,ENE,69,7.0,21.0,90,0.21,,,0.21,VWS V14.01,2013-08-25 00:21:00,
2013-08-24 18:26:00,81.0,78.5,29.85,East,91,5.0,21.0,92,0.41,,,0.41,VWS V14.01,2013-08-25 00:26:00,
2013-08-24 18:30:00,81.4,79.5,29.84,East,94,10.0,21.0,94,0.46,,,0.46,VWS V15.00,2013-08-25 00:30:00,
2013-08-24 18:31:00,81.4,79.2,29.84,ENE,77,6.0,11.0,93,0.47,,,0.47,VWS V14.01,2013-08-25 00:31:00,
2013-08-24 18:36:00,81.3,79.1,29.84,ENE,68,8.0,11.0,93,0.50,,,0.50,VWS V14.01,2013-08-25 00:36:00,
2013-08-24 18:41:00,81.2,79.3,29.84,NE,53,5.0,11.0,94,0.50,,,0.50,VWS V14.01,2013-08-25 00:41:00,
2013-08-24 18:46:00,81.1,79.2,29.84,ENE,67,5.0,11.0,94,0.50,,,0.50,VWS V14.01,2013-08-25 00:46:00,
2013-08-24 18:51:00,80.9,78.7,29.84,NE,49,5.0,11.0,93,0.51,,,0.51,VWS V14.01,2013-08-25 00:51:00,
2013-08-24 18:56:00,80.6,78.4,29.85,ENE,63,7.0,13.0,93,0.51,,,0.51,VWS V14.01,2013-08-25 00:56:00,
2013-08-24 19:00:00,80.7,78.5,29.85,ENE,65,5.0,13.0,93,0.51,,,0.51,VWS V15.00,2013-08-25 01:00:00,
2013-08-24 19:01:00,80.7,78.5,29.85,ENE,62,6.0,9.0,93,0.50,,,0.51,VWS V14.01,2013-08-25 01:01:00,
2013-08-24 19:06:00,81.3,79.1,29.85,NE,49,9.0,14.0,93,0.50,,,0.51,VWS V14.01,2013-08-25 01:06:00,
2013-08-24 19:11:00,81.7,79.5,29.86,NE,56,9.0,14.0,93,0.50,,,0.51,VWS V14.01,2013-08-25 01:11:00,
2013-08-24 19:16:00,82.0,79.8,29.86,NE,49,5.0,14.0,93,0.50,,,0.51,VWS V14.01,2013-08-25 01:16:00,
2013-08-24 19:21:00,82.2,80.0,29.86,ENE,67,8.0,17.0,93,0.50,,,0.51,VWS V14.01,2013-08-25 01:21:00,
2013-08-24 19:26:00,82.2,79.7,29.86,ENE,58,8.0,17.0,92,0.50,,,0.51,VWS V14.01,2013-08-25 01:26:00,
2013-08-24 19:30:00,82.0,79.4,29.86,NE,39,4.0,17.0,92,0.50,,,0.51,VWS V15.00,2013-08-25 01:30:00,
2013-08-24 19:31:00,82.0,79.4,29.87,ENE,58,7.0,13.0,92,0.05,,,0.51,VWS V14.01,2013-08-25 01:31:00,
2013-08-24 19:36:00,81.6,78.7,29.87,ENE,63,5.0,13.0,91,0.06,,,0.52,VWS V14.01,2013-08-25 01:36:00,
2013-08-24 19:41:00,81.4,78.9,29.87,NE,41,4.0,13.0,92,0.06,,,0.52,VWS V14.01,2013-08-25 01:41:00,
2013-08-24 19:46:00,81.2,78.7,29.87,ENE,66,5.0,13.0,92,0.07,,,0.53,VWS V14.01,2013-08-25 01:46:00,
2013-08-24 19:51:00,81.1,78.6,29.88,ENE,77,5.0,13.0,92,0.08,,,0.54,VWS V14.01,2013-08-25 01:51:00,
2013-08-24 19:56:00,81.1,78.6,29.88,ENE,66,4.0,13.0,92,0.09,,,0.55,VWS V14.01,2013-08-25 01:56:00,
2013-08-24 20:00:00,81.1,78.6,29.88,ENE,72,2.0,13.0,92,0.10,,,0.56,VWS V15.00,2013-08-25 02:00:00,
2013-08-24 20:01:00,81.1,78.6,29.88,NE,50,2.0,3.0,92,0.05,,,0.56,VWS V14.01,2013-08-25 02:01:00,
2013-08-24 20:06:00,81.1,78.6,29.88,NE,49,5.0,5.0,92,0.05,,,0.56,VWS V14.01,2013-08-25 02:06:00,
2013-08-24 20:11:00,81.4,79.2,29.88,NE,56,0.0,6.0,93,0.05,,,0.56,VWS V14.01,2013-08-25 02:11:00,
2013-08-24 20:16:00,81.6,79.4,29.88,NE,49,4.0,6.0,93,0.05,,,0.56,VWS V14.01,2013-08-25 02:16:00,
2013-08-24 20:21:00,81.7,79.5,29.89,ENE,65,2.0,6.0,93,0.05,,,0.56,VWS V14.01,2013-08-25 02:21:00,
2013-08-24 20:26:00,81.9,79.7,29.89,ENE,75,5.0,7.0,93,0.05,,,0.56,VWS V14.01,2013-08-25 02:26:00,
2013-08-24 20:30:00,82.0,79.8,29.89,ENE,62,6.0,9.0,93,0.05,,,0.56,VWS V15.00,2013-08-25 02:30:00,
2013-08-24 20:31:00,82.0,79.8,29.89,ENE,72,5.0,6.0,93,0.05,,,0.56,VWS V14.01,2013-08-25 02:31:00,
2013-08-24 20:36:00,82.0,79.8,29.89,ENE,66,6.0,10.0,93,0.05,,,0.56,VWS V14.01,2013-08-25 02:36:00,
2013-08-24 20:41:00,82.0,79.4,29.89,ENE,77,5.0,10.0,92,0.05,,,0.56,VWS V14.01,2013-08-25 02:41:00,
2013-08-24 20:46:00,82.0,79.8,29.90,ESE,114,4.0,10.0,93,0.05,,,0.56,VWS V14.01,2013-08-25 02:46:00,
2013-08-24 20:51:00,81.9,79.7,29.90,NE,51,2.0,10.0,93,0.05,,,0.56,VWS V14.01,2013-08-25 02:51:00,
2013-08-24 20:56:00,81.8,79.6,29.90,NE,56,2.0,10.0,93,0.05,,,0.56,VWS V14.01,2013-08-25 02:56:00,
2013-08-24 21:00:00,81.8,79.6,29.90,ENE,65,2.0,10.0,93,0.05,,,0.56,VWS V15.00,2013-08-25 03:00:00,
2013-08-24 21:01:00,81.8,79.6,29.90,ENE,63,1.0,3.0,93,0.00,,,0.56,VWS V14.01,2013-08-25 03:01:00,
2013-08-24 21:06:00,81.8,79.6,29.90,ENE,70,4.0,5.0,93,0.00,,,0.56,VWS V14.01,2013-08-25 03:06:00,
2013-08-24 21:11:00,81.6,79.4,29.90,ENE,69,2.0,6.0,93,0.00,,,0.56,VWS V14.01,2013-08-25 03:11:00,
2013-08-24 21:16:00,81.5,79.6,29.90,ENE,61,2.0,6.0,94,0.00,,,0.56,VWS V14.01,2013-08-25 03:16:00,
2013-08-24 21:21:00,81.3,79.1,29.90,East,82,5.0,6.0,93,0.00,,,0.56,VWS V14.01,2013-08-25 03:21:00,
2013-08-24 21:26:00,81.0,78.8,29.90,ENE,63,4.0,7.0,93,0.00,,,0.56,VWS V14.01,2013-08-25 03:26:00,
2013-08-24 21:30:00,81.0,78.8,29.90,ENE,77,3.0,7.0,93,0.00,,,0.56,VWS V15.00,2013-08-25 03:30:00,
2013-08-24 21:31:00,81.0,78.8,29.90,East,84,5.0,5.0,93,0.00,,,0.56,VWS V14.01,2013-08-25 03:31:00,
2013-08-24 21:36:00,81.1,78.9,29.90,ENE,69,2.0,6.0,93,0.00,,,0.56,VWS V14.01,2013-08-25 03:36:00,
2013-08-24 21:41:00,81.1,78.9,29.90,NE,50,4.0,7.0,93,0.00,,,0.56,VWS V14.01,2013-08-25 03:41:00,
2013-08-24 21:46:00,81.2,78.7,29.90,NE,46,2.0,7.0,92,0.00,,,0.56,VWS V14.01,2013-08-25 03:46:00,
2013-08-24 21:51:00,81.2,78.7,29.90,East,79,4.0,8.0,92,0.00,,,0.56,VWS V14.01,2013-08-25 03:51:00,
2013-08-24 21:56:00,81.2,78.3,29.90,ESE,107,3.0,10.0,91,0.00,,,0.56,VWS V14.01,2013-08-25 03:56:00,
2013-08-24 22:00:00,81.3,78.1,29.90,ENE,71,9.0,10.0,90,0.00,,,0.56,VWS V15.00,2013-08-25 04:00:00,
2013-08-24 22:01:00,81.3,78.1,29.90,East,90,8.0,9.0,90,0.00,,,0.56,VWS V14.01,2013-08-25 04:01:00,
2013-08-24 22:02:00,81.4,78.2,29.90,ENE,65,5.0,9.0,90,0.00,,,0.56,VWS V14.01,2013-08-25 04:02:00,
2013-08-24 22:07:00,81.5,78.3,29.90,NNE,30,4.0,9.0,90,0.00,,,0.56,VWS V14.01,2013-08-25 04:07:00,
2013-08-24 22:12:00,81.6,78.4,29.90,ENE,77,6.0,11.0,90,0.00,,,0.56,VWS V14.01,2013-08-25 04:12:00,
2013-08-24 22:17:00,81.8,78.2,29.91,ENE,59,4.0,11.0,89,0.00,,,0.56,VWS V14.01,2013-08-25 04:17:00,
2013-08-24 22:22:00,81.9,78.3,29.90,NE,46,8.0,11.0,89,0.00,,,0.56,VWS V14.01,2013-08-25 04:22:00,
2013-08-24 22:27:00,81.9,78.0,29.90,East,83,5.0,11.0,88,0.00,,,0.56,VWS V14.01,2013-08-25 04:27:00,
2013-08-24 22:30:00,81.9,78.0,29.90,ENE,58,4.0,11.0,88,0.00,,,0.56,VWS V15.00,2013-08-25 04:30:00,
2013-08-24 22:32:00,81.8,77.9,29.90,ESE,108,3.0,5.0,88,0.00,,,0.56,VWS V14.01,2013-08-25 04:32:00,
2013-08-24 22:37:00,81.7,77.8,29.90,ENE,75,4.0,6.0,88,0.00,,,0.56,VWS V14.01,2013-08-25 04:37:00,
2013-08-24 22:42:00,81.8,77.9,29.90,ENE,70,1.0,7.0,88,0.00,,,0.56,VWS V14.01,2013-08-25 04:42:00,
2013-08-24 22:47:00,81.8,77.6,29.90,NE,53,5.0,7.0,87,0.00,,,0.56,VWS V14.01,2013-08-25 04:47:00,
2013-08-24 22:52:00,81.8,77.9,29.90,ENE,61,1.0,7.0,88,0.00,,,0.56,VWS V14.01,2013-08-25 04:52:00,
2013-08-24 22:57:00,81.8,77.9,29.90,ENE,72,3.0,7.0,88,0.00,,,0.56,VWS V14.01,2013-08-25 04:57:00,
2013-08-24 23:00:00,81.9,78.0,29.90,ENE,63,4.0,9.0,88,0.00,,,0.56,VWS V15.00,2013-08-25 05:00:00,
2013-08-24 23:02:00,81.9,78.0,29.91,ENE,68,3.0,7.0,88,0.00,,,0.56,VWS V14.01,2013-08-25 05:02:00,
2013-08-24 23:07:00,82.0,78.1,29.90,East,83,4.0,7.0,88,0.00,,,0.56,VWS V14.01,2013-08-25 05:07:00,
2013-08-24 23:12:00,82.2,78.3,29.90,ESE,107,3.0,7.0,88,0.00,,,0.56,VWS V14.01,2013-08-25 05:12:00,
2013-08-24 23:17:00,82.7,78.8,29.90,East,96,5.0,7.0,88,0.00,,,0.56,VWS V14.01,2013-08-25 05:17:00,
2013-08-24 23:22:00,83.0,78.7,29.90,East,97,6.0,7.0,87,0.00,,,0.56,VWS V14.01,2013-08-25 05:22:00,
2013-08-24 23:27:00,83.1,78.8,29.90,ENE,77,1.0,8.0,87,0.00,,,0.56,VWS V14.01,2013-08-25 05:27:00,
2013-08-24 23:30:00,83.0,78.7,29.90,ENE,76,3.0,8.0,87,0.00,,,0.56,VWS V15.00,2013-08-25 05:30:00,
2013-08-24 23:32:00,83.0,78.7,29.90,NE,54,3.0,3.0,87,0.00,,,0.56,VWS V14.01,2013-08-25 05:32:00,
2013-08-24 23:37:00,82.9,78.6,29.89,ENE,68,3.0,8.0,87,0.00,,,0.56,VWS V14.01,2013-08-25 05:37:00,
2013-08-24 23:42:00,82.9,78.6,29.89,East,101,3.0,8.0,87,0.00,,,0.56,VWS V14.01,2013-08-25 05:42:00,
2013-08-24 23:47:00,82.9,78.6,29.89,ENE,76,2.0,8.0,87,0.00,,,0.56,VWS V14.01,2013-08-25 05:47:00,
2013-08-24 23:52:00,82.8,78.5,29.89,East,81,3.0,8.0,87,0.00,,,0.56,VWS V14.01,2013-08-25 05:52:00,
2013-08-24 23:57:00,82.8,78.5,29.89,East,100,1.0,8.0,87,0.00,,,0.56,VWS V14.01,2013-08-25 05:57:00,